Date String (YYYY-MM-DD hh:mm:ss) UTC,Instrument flags,Ambient pressure (hPa),Sample flow (lpm),Bypass flow (lpm),Sample temperature (°C),Ambient temperature (°C),ASC tube jacket temperature (°C),LED temperature (°C),Box temperature (°C),Sample RH (%),Span deviation,Mass concentration (μg/m³),Mass concentration (μg/m³),Mass concentration (μg/m³)
DateTimeUTC,F1_M11,P_M11,Q1_M11,Q2_M11,T1_M11,T2_M11,T3_M11,T4_M11,T5_M11,U1_M11,ZSPAN_M11,X0_M11,X2_M11,X1_M11
2022-03-15 18:00:00,,0827.4,5.00,0.00,25.2,24.6,00.0,34.0,27.1,10.5,0000.0,0010.37,0004.85,0004.23
2022-03-15 18:01:00,,0827.4,5.00,0.00,25.2,24.6,00.0,34.0,27.2,10.4,0000.0,0010.55,0004.92,0004.28
2022-03-15 18:02:00,,0827.4,5.00,0.00,25.3,24.7,00.0,34.1,27.2,10.7,0000.0,0010.04,0005.00,0004.34
2022-03-15 18:03:00,,0827.4,4.99,0.00,25.3,24.7,00.0,34.1,27.2,10.7,0000.0,0010.99,0005.04,0004.39
2022-03-15 18:04:00,,0827.4,5.00,0.00,25.3,24.7,00.0,34.1,27.2,10.4,0000.0,0011.66,0005.12,0004.45
2022-03-15 18:05:00,,0827.4,5.01,0.00,25.3,24.7,00.0,34.1,27.3,10.1,0000.0,0012.48,0005.22,0004.51
2022-03-15 18:06:00,,0827.3,5.01,0.00,25.4,24.7,00.0,34.1,27.3,09.9,0000.0,0013.02,0005.28,0004.54
2022-03-15 18:07:00,,0827.6,5.00,0.00,25.4,24.7,00.0,34.2,27.3,09.7,0000.0,0012.96,0005.27,0004.55
2022-03-15 18:08:00,,0827.5,5.00,0.00,25.4,24.7,00.0,34.2,27.3,09.8,0000.0,0012.83,0005.29,0004.57
2022-03-15 18:09:00,,0827.1,4.99,0.00,25.4,24.7,00.0,34.2,27.3,09.9,0000.0,0012.75,0005.33,0004.61
2022-03-15 18:10:00,,0827.2,4.99,0.00,25.4,24.7,00.0,34.2,27.3,09.8,0000.0,0013.00,0005.40,0004.64
2022-03-15 18:11:00,,0827.1,5.00,0.00,25.4,24.8,00.0,34.2,27.3,10.2,0000.0,0013.32,0005.43,0004.65
2022-03-15 18:12:00,,0827.1,5.00,0.00,25.4,24.8,00.0,34.2,27.3,10.2,0000.0,0013.77,0005.46,0004.68
2022-03-15 18:13:00,,0827.2,5.00,0.00,25.5,24.8,00.0,34.3,27.4,10.3,0000.0,0014.07,0005.52,0004.72
2022-03-15 18:14:00,,0827.1,5.00,0.00,25.5,24.8,00.0,34.3,27.4,10.2,0000.0,0014.48,0005.59,0004.77
2022-03-15 18:15:00,,0827.1,5.01,0.00,25.5,24.8,00.0,34.3,27.4,10.0,0000.0,0013.93,0005.64,0004.80
2022-03-15 18:16:00,,0827.1,4.99,0.00,25.5,24.9,00.0,34.3,27.4,09.3,0000.0,0013.69,0005.61,0004.80
2022-03-15 18:17:00,,0827.0,5.01,0.00,25.5,24.9,00.0,34.3,27.4,08.7,0000.0,0013.95,0005.54,0004.73
2022-03-15 18:18:00,,0826.9,5.00,0.00,25.6,24.9,00.0,34.3,27.4,08.6,0000.0,0014.22,0005.46,0004.67
2022-03-15 18:19:00,,0826.9,5.00,0.00,25.6,24.9,00.0,34.4,27.5,08.3,0000.0,0014.27,0005.38,0004.59
2022-03-15 18:20:00,,0826.9,5.00,0.00,25.6,24.9,00.0,34.4,27.5,08.1,0000.0,0014.17,0005.29,0004.48
2022-03-15 18:21:00,,0826.9,5.01,0.00,25.6,24.9,00.0,34.4,27.5,07.7,0000.0,0013.62,0005.14,0004.37
2022-03-15 18:22:00,,0826.9,5.00,0.00,25.6,24.9,00.0,34.4,27.5,08.6,0000.0,0013.13,0005.00,0004.28
2022-03-15 18:23:00,,0826.9,5.00,0.00,25.6,25.0,00.0,34.4,27.5,08.1,0000.0,0012.39,0004.90,0004.17
2022-03-15 18:24:00,,0827.0,4.98,0.00,25.7,25.0,00.0,34.4,27.5,07.5,0000.0,0011.77,0004.69,0003.99
2022-03-15 18:25:00,,0826.9,5.01,0.00,25.7,25.0,00.0,34.5,27.5,07.6,0000.0,0011.05,0004.51,0003.85
2022-03-15 18:26:00,,0827.0,5.01,0.00,25.7,25.1,00.0,34.5,27.6,08.1,0000.0,0011.06,0004.33,0003.71
2022-03-15 18:27:00,,0826.9,4.99,0.00,25.7,25.1,00.0,34.5,27.6,08.3,0000.0,0010.86,0004.19,0003.58
2022-03-15 18:28:00,,0826.9,5.00,0.00,25.7,25.1,00.0,34.5,27.6,08.3,0000.0,0010.04,0004.12,0003.52
2022-03-15 18:29:00,,0826.9,5.00,0.00,25.8,25.2,00.0,34.5,27.7,08.8,0000.0,0009.75,0004.18,0003.51
2022-03-15 18:30:00,,0826.8,5.01,0.00,25.8,25.2,00.0,34.6,27.7,09.4,0000.0,0009.81,0004.28,0003.56
2022-03-15 18:31:00,,0826.9,4.99,0.00,25.8,25.2,00.0,34.6,27.7,07.8,0000.0,0009.91,0004.29,0003.59
2022-03-15 18:32:00,,0826.7,5.01,0.00,25.8,25.2,00.0,34.6,27.8,06.7,0000.0,0009.66,0004.22,0003.55
2022-03-15 18:33:00,,0826.8,5.00,0.00,25.9,25.3,00.0,34.6,27.8,05.6,0000.0,0009.49,0004.15,0003.47
2022-03-15 18:34:00,,0826.7,4.99,0.00,25.9,25.3,00.0,34.6,27.8,05.3,0000.0,0009.39,0004.06,0003.38
2022-03-15 18:35:00,,0826.7,5.00,0.00,25.9,25.3,00.0,34.7,27.8,05.2,0000.0,0009.48,0003.99,0003.32
2022-03-15 18:36:00,,0826.7,5.01,0.00,25.9,25.4,00.0,34.7,27.8,05.3,0000.0,0009.36,0003.92,0003.26
2022-03-15 18:37:00,,0826.7,5.01,0.00,26.0,25.4,00.0,34.7,27.9,05.2,0000.0,0008.33,0003.82,0003.18
2022-03-15 18:38:00,,0826.7,4.99,0.00,26.0,25.4,00.0,34.7,27.9,04.6,0000.0,0008.23,0003.72,0003.06
2022-03-15 18:39:00,,0826.7,5.00,0.00,26.0,25.4,00.0,34.8,27.9,04.9,0000.0,0007.80,0003.58,0002.87
2022-03-15 18:40:00,,0826.7,5.00,0.00,26.0,25.4,00.0,34.8,28.0,05.7,0000.0,0007.49,0003.45,0002.68
2022-03-15 18:41:00,,0826.7,5.01,0.00,26.1,25.5,00.0,34.8,28.0,06.5,0000.0,0007.22,0003.32,0002.47
2022-03-15 18:42:00,,0826.7,5.00,0.00,26.1,25.5,00.0,34.8,28.0,06.7,0000.0,0006.84,0003.20,0002.30
2022-03-15 18:43:00,,0826.7,4.99,0.00,26.1,25.5,00.0,34.9,28.0,07.6,0000.0,0006.88,0003.21,0002.28
2022-03-15 18:44:00,,0826.6,5.01,0.00,26.1,25.5,00.0,34.9,28.0,08.0,0000.0,0007.01,0003.28,0002.39
2022-03-15 18:45:00,,0826.6,5.00,0.00,26.2,25.5,00.0,34.9,28.0,06.9,0000.0,0007.55,0003.34,0002.52
2022-03-15 18:46:00,,0826.6,5.00,0.00,26.2,25.5,00.0,34.9,28.1,07.6,0000.0,0007.93,0003.41,0002.60
2022-03-15 18:47:00,,0826.6,5.00,0.00,26.2,25.6,00.0,34.9,28.1,07.0,0000.0,0007.98,0003.49,0002.74
2022-03-15 18:48:00,,0826.6,5.00,0.00,26.2,25.6,00.0,35.0,28.1,07.0,0000.0,0008.70,0003.56,0002.85
2022-03-15 18:49:00,,0826.6,4.98,0.00,26.2,25.6,00.0,35.0,28.1,07.3,0000.0,0009.45,0003.70,0003.01
2022-03-15 18:50:00,,0826.7,5.00,0.00,26.2,25.6,00.0,35.0,28.1,06.6,0000.0,0009.49,0003.81,0003.12
2022-03-15 18:51:00,,0826.6,5.01,0.00,26.2,25.6,00.0,35.0,28.1,06.7,0000.0,0009.95,0003.87,0003.18
2022-03-15 18:52:00,,0826.6,5.00,0.00,26.3,25.6,00.0,35.0,28.1,06.3,0000.0,0009.92,0003.84,0003.18
2022-03-15 18:53:00,,0826.6,5.00,0.00,26.3,25.6,00.0,35.1,28.2,06.1,0000.0,0009.81,0003.81,0003.16
2022-03-15 18:54:00,,0826.5,5.00,0.00,26.3,25.6,00.0,35.1,28.2,06.3,0000.0,0009.74,0003.78,0003.13
2022-03-15 18:55:00,,0826.5,5.00,0.00,26.3,25.7,00.0,35.1,28.2,06.5,0000.0,0009.63,0003.72,0003.08
2022-03-15 18:56:00,,0826.5,5.00,0.00,26.3,25.7,00.0,35.1,28.2,06.1,0000.0,0009.29,0003.65,0003.00
2022-03-15 18:57:00,,0826.5,4.98,0.00,26.3,25.7,00.0,35.1,28.2,06.9,0000.0,0008.66,0003.64,0003.00
2022-03-15 18:58:00,,0826.5,5.00,0.00,26.4,25.7,00.0,35.1,28.2,06.9,0000.0,0008.84,0003.66,0002.99
2022-03-15 18:59:00,,0826.5,5.00,0.00,26.4,25.7,00.0,35.2,28.2,07.4,0000.0,0008.48,0003.70,0003.05
